Regional Weather Roundup
Issued by NWS

Home | Current Version | Previous Version | Graphics & Text | Print | Product List | Glossary On
Versions: 1 2 3 4 5 6 7 8 9 10 11 12 13 14 15 16 17 18 19 20 21 22 23 24 25 26 27 28 29 30 31 32 33 34 35 36 37 38 39 40 41 42 43 44 45 46 47 48 49 50
000
ASUS43 KMKX 070711
RWRWI

WISCONSIN REGIONAL WEATHER ROUNDUP
NATIONAL WEATHER SERVICE MILWAUKEE/SULLIVAN WI
200 AM CDT THU MAY 07 2015

NOTE: "FAIR" INDICATES FEW OR NO CLOUDS BELOW 12,000 FEET WITH NO
SIGNIFICANT WEATHER AND/OR OBSTRUCTIONS TO VISIBILITY.

WIZ001-002-006>008-014>016-023>028-070800-
NORTHWEST WISCONSIN

CITY           SKY/WX    TMP DP  RH WIND       PRES   REMARKS
SUPERIOR ARPT  PTCLDY    41  38  89 CALM      29.91S
ASHLAND        CLOUDY    50  49  96 CALM      29.93S
HAYWARD        PTCLDY    62  58  86 S13       29.93S
SIREN          PTCLDY    63  57  81 SE7       29.87F
CUMBERLAND     MOCLDY    59  57  94 SE9       29.91F
RICE LAKE      PTCLDY    61  57  88 E12       29.92F
CHETEK         CLOUDY    62  59  92 E9        29.92F
LADYSMITH      CLOUDY    62  60  94 SE8       29.97S
EAU CLAIRE     CLOUDY    62  58  86 SE6       29.92F
MENOMONIE      PTCLDY    61  60  94 SE9       29.91F
NEW RICHMOND   PTCLDY    63  57  82 SE8       29.88F
OSCEOLA        CLEAR     63  59  87 SE10      29.89F
$$

WIZ003>005-009-010-017-018-070800-
NORTH CENTRAL WISCONSIN

CITY           SKY/WX    TMP DP  RH WIND       PRES   REMARKS
MANITOWISH WTR MOCLDY    59  57  92 SE8       30.00F
ARBOR VITAE    PTCLDY    59  55  87 SE7       30.01F
WOODRUFF       PTCLDY    59  55  87 SE7       30.01F
RHINELANDER    MOCLDY    58  54  86 SE8       30.04F
EAGLE RIVER    MOCLDY    56  53  87 S3        30.03F
LAND O LAKES   CLOUDY    58  53  85 S5        30.04F
PHILLIPS       MOCLDY    60  58  91 SE8       29.97F
TOMAHAWK       MOCLDY    57  55  91 SE5       30.02F FOG
MEDFORD        CLOUDY    60  57  90 SE8       30.00F FOG
MERRILL        MOCLDY    58  56  94 SE5       30.03F FOG
$$

WIZ029-030-035-036-043>047-070800-
CENTRAL WISCONSIN

CITY           SKY/WX    TMP DP  RH WIND       PRES   REMARKS
WAUSAU         CLOUDY    59  56  89 E7        30.01F FOG
MOSINEE        CLOUDY    59  55  88 SE7       30.03F
MARSHFIELD     CLOUDY    61  57  87 SE6       29.99F FOG
STEVENS POINT  CLOUDY    60  55  84 SE7       30.02F HAZE
WAUPACA        PTCLDY    57  56  95 E5        30.04F FOG
WAUTOMA        MOCLDY    56  56 100 CALM      30.03F FOG
WISC RAPIDS    CLOUDY    62  56  80 SE6       30.01F
CAMP DOUGLAS   CLOUDY    63  63 100 SE7       29.98F
$$

WIZ011>013-019>022-031-037>040-048>050-070800-
NORTHEAST WISCONSIN

CITY           SKY/WX    TMP DP  RH WIND       PRES   REMARKS
ANTIGO         MOCLDY    54  53  97 SE7       30.05F FOG
SHAWANO        CLOUDY    53  51  92 CALM      30.07S FOG
OCONTO         MOCLDY    46  43  90 CALM      30.06F
STURGEON BAY   MOCLDY    50  39  66 SE8       30.09S
GREEN BAY      PTCLDY    51  48  89 E3        30.06F
MANITOWOC        N/A    N/A N/A N/A MISG        N/A
APPLETON       PTCLDY    52  50  93 CALM      30.06R FOG
CLINTONVILLE   PTCLDY    52  52 100 E3        30.06S FOG
OSHKOSH        MOCLDY    55  52  89 S6        30.04F FOG
$$

WIZ032>034-041-042-053>061-070800-
SOUTHWEST WISCONSIN

CITY           SKY/WX    TMP DP  RH WIND       PRES   REMARKS
LA CROSSE      MOCLDY    66  58  75 E6        29.92F
SPARTA         CLOUDY    63  59  88 E6        29.96F
VIROQUA        CLOUDY    65  58  79 SE10      29.96F
BOSCOBEL       CLOUDY    69  58  67 SE3       29.96F
PRAIRIE DU CHI CLOUDY    66  56  71 E9        29.94F
PLATTEVILLE    MOCLDY    64  59  85 E9        29.98F
$$

WIZ056-057-062-063-064-067-068-070800-
SOUTH CENTRAL WISCONSIN

CITY           SKY/WX    TMP DP  RH WIND       PRES   REMARKS
REEDSBURG      MOCLDY    64  60  84 SE7       29.99F
BARABOO/DELLS  MOCLDY    62  56  82 SE7       30.00F HAZE
LONE ROCK      CLOUDY    64  59  83 E8        29.98F
MINERAL POINT  MOCLDY    64  57  77 SE9       29.99F
MADISON        PTCLDY    61  56  83 SE5       30.01F HAZE
MIDDLETON      PTCLDY    61  58  90 E5        30.02F
WATERTOWN      PTCLDY    53  53 100 CALM      30.04S FOG
MONROE         PTCLDY    61  55  82 SE8       30.01F FOG
JANESVILLE     CLEAR     57  54  88 SE6       30.02F FOG
$$

WIZ051-052-058>065-066-070>072-070800-
SOUTHEAST WISCONSIN

CITY           SKY/WX    TMP DP  RH WIND       PRES   REMARKS
MILWAUKEE      PTCLDY    46  45  96 CALM      30.07F
WAUKESHA       FOG       45  45 100 CALM      30.07F VSB 1/4
MILWAUKEE/TIMM FOG       45  43  93 CALM      30.07F VSB 3/4
RACINE         PTCLDY    45  43  93 CALM      30.08F
BURLINGTON     CLEAR     47  46  99 CALM      30.06S FOG
KENOSHA        PTCLDY    46  46 100 CALM      30.07S FOG
FOND DU LAC    MOCLDY    56  52  86 S6        30.04F
SHEBOYGAN      CLEAR     45  44  97 CALM      30.07S FOG
WEST BEND      FOG       46  46 100 CALM      30.06F VSB<1/4
JUNEAU         PTCLDY    55  52  89 S6        30.06S FOG
$$

LSZ147-162-070800-
LAKE SUPERIOR

STATION/POSITION TIME  TEMP    WIND        PRES    WAVE
                       AIR SEA DIR/SP/G            HT/PER
                 (UTC) (F)     (DEG/KT/KT) (MB)    (FT/S)
W MID LAKE BUOY  0650   43 35  150/  8/  8 1015.0F   1/ 4
DEVILS ISLAND    0700   44      90/  7/  7 1013.6F
PORT WING        0600   40      40/  7/ 10 1012.9
SAXON HARBOR     0600          170/  6/ 10 1013.5F
$$

LMZ867-665-643>646-070800-
LAKE MICHIGAN

STATION/POSITION TIME  TEMP    WIND        PRES    WAVE
                       AIR SEA DIR/SP/G            HT/PER
                 (UTC) (F)     (DEG/KT/KT) (MB)    (FT/S)
CHAMBERS ISLAND  0600   47     360/  2/  3 1018.6F
NORTHPORT PIER   0600   46     140/  5/  6 1018.6F
SISTER BAY       0502   50        CALM       N/A
KEWAUNEE LAKESHO 0612   48      CALM  /  1 1017.8F
SHEBOYGAN LAKESH 0700   48      CALM  /  1 1018.8F
PORT WASHINGTON  0640   48     290/  2/  4 1019.0F
ATWATER BUOY     0600   45     340/  4/  6 1019.5F
MILWAUKEE LAKESH 0600   46      40/  2/  2   N/A
KENOSHA   LAKESH 0700   45      CALM  /  2 1018.3S
$$

TC  - TEMPERATURE IN CELSIUS
VSB - VISIBILITY IN STATUTE MILES
WCI - WIND CHILL INDEX
HX  - HEAT INDEX



USA.gov is the U.S. government's official web portal to all federal, state and local government web resources and services.